N1JOT Weather Reports


time (UTC)temp
C
wind
direction
speed
KPH
gust
KPH
rain 1hr
cm
rain 24hr
cm
rain mn
cm
humidity
%
barometer
mb
20260507031103 12 0 0.0 8.0 0.00 0.28 0.28 93 1007.4
20260507030559 12 163 1.6 8.0 0.00 0.28 0.28 93 1007.4
20260507030101 12 0 0.0 6.4 0.00 0.28 0.28 93 1007.2
20260507025604 12 0 0.0 6.4 0.00 0.28 0.28 93 1007.2
20260507025058 12 0 1.6 6.4 0.00 0.28 0.28 93 1007.3
20260507024620 12 207 1.6 6.4 0.00 0.28 0.28 93 1007.3
20260507024100 12 148 1.6 6.4 0.00 0.28 0.28 93 1007.3
20260507023604 12 223 1.6 4.8 0.00 0.28 0.28 93 1007.4
20260507023059 12 313 0.0 4.8 0.00 0.28 0.28 93 1007.2
20260507022558 12 0 0.0 8.0 0.00 0.28 0.28 93 1007.2
20260507022059 12 0 0.0 8.0 0.00 0.28 0.28 93 1007.4
20260507021600 12 200 1.6 8.0 0.00 0.28 0.28 93 1007.5
20260507021059 12 0 1.6 6.4 0.00 0.28 0.28 93 1007.4
20260507020559 12 131 0.0 8.0 0.00 0.28 0.28 93 1007.5
20260507020110 12 200 1.6 8.0 0.00 0.28 0.28 93 1007.6
20260507015558 12 0 0.0 6.4 0.00 0.28 0.28 93 1007.6
20260507015100 12 0 0.0 6.4 0.00 0.28 0.28 93 1007.7
20260507014609 12 0 0.0 8.0 0.00 0.28 0.28 93 1007.9
20260507014058 12 0 1.6 8.0 0.00 0.28 0.28 93 1007.8
20260507013558 12 200 1.6 8.0 0.00 0.28 0.28 93 1007.7
20260507013059 12 188 0.0 3.2 0.00 0.28 0.28 93 1007.8
20260507012601 12 0 0.0 6.4 0.00 0.28 0.28 93 1007.8
20260507012058 12 0 0.0 6.4 0.00 0.28 0.28 93 1007.9
20260507011603 12 0 1.6 12.9 0.00 0.28 0.28 93 1007.9
20260507011059 12 50 0.0 12.9 0.00 0.28 0.28 93 1008.0
20260507010559 12 182 0.0 6.4 0.00 0.28 0.28 93 1008.1
20260507010101 12 0 1.6 9.7 0.00 0.28 0.28 93 1008.1
20260507005558 12 164 1.6 9.7 0.00 0.28 0.28 93 1008.0
20260507005058 12 169 1.6 11.3 0.00 0.28 0.28 93 1007.9
20260507004601 12 205 1.6 11.3 0.00 0.28 0.28 93 1007.9
20260507004101 12 0 3.2 11.3 0.00 0.28 0.28 93 1007.9
20260507003558 12 178 1.6 9.7 0.00 0.28 0.28 93 1007.9
20260507003101 12 182 0.0 8.0 0.00 0.28 0.28 93 1008.0
20260507002559 12 157 1.6 8.0 0.00 0.28 0.28 92 1008.0
20260507002102 12 0 1.6 8.0 0.00 0.28 0.28 92 1008.0
20260507001611 12 0 3.2 9.7 0.00 0.28 0.28 92 1008.1
20260507001057 12 240 1.6 9.7 0.00 0.28 0.28 92 1008.0
20260507000601 12 210 1.6 16.1 0.05 0.28 0.28 92 1008.0
20260507000100 12 159 4.8 16.1 0.08 0.28 0.28 92 1008.0
20260506235601 12 266 1.6 12.9 0.10 0.28 0.28 92 1008.1
20260506235058 12 115 3.2 12.9 0.10 0.28 0.28 92 1008.0
20260506234612 12 0 4.8 12.9 0.10 0.28 0.28 92 1008.0
20260506234058 12 0 3.2 8.0 0.10 0.28 0.28 92 1008.0
20260506233603 13 182 1.6 11.3 0.10 0.28 0.28 92 1008.0
20260506233101 12 180 3.2 19.3 0.13 0.28 0.28 92 1008.0
20260506232559 12 180 4.8 19.3 0.13 0.28 0.28 92 1008.0
20260506232059 12 172 3.2 9.7 0.15 0.28 0.28 92 1008.0
20260506231600 13 223 1.6 11.3 0.15 0.28 0.28 92 1008.0
20260506231059 12 313 1.6 12.9 0.15 0.28 0.28 91 1008.0
20260506230558 12 111 3.2 12.9 0.10 0.23 0.23 91 1007.9
20260506225602 13 200 1.6 9.7 0.05 0.18 0.18 91 1007.8
20260506225102 12 0 1.6 8.0 0.05 0.18 0.18 91 1007.7
20260506224600 13 159 1.6 14.5 0.05 0.18 0.18 91 1007.6
20260506224058 13 200 1.6 14.5 0.05 0.18 0.18 91 1007.7
20260506223558 13 0 1.6 12.9 0.05 0.18 0.18 91 1007.8
20260506223100 13 192 3.2 12.9 0.03 0.15 0.15 91 1007.9
20260506222601 13 174 3.2 14.5 0.03 0.15 0.15 90 1007.9
20260506222059 13 212 3.2 20.9 0.00 0.13 0.13 90 1007.9
20260506221558 13 0 4.8 20.9 0.00 0.13 0.13 90 1008.2
20260506221058 13 211 1.6 19.3 0.03 0.13 0.13 90 1008.2
20260506220558 13 215 3.2 19.3 0.03 0.13 0.13 90 1008.2
20260506220058 13 199 4.8 16.1 0.03 0.13 0.13 90 1008.3
20260506215557 13 194 3.2 11.3 0.05 0.13 0.13 90 1008.4
20260506215059 13 192 3.2 11.3 0.05 0.13 0.13 90 1008.3
20260506214558 13 181 3.2 11.3 0.05 0.13 0.13 90 1008.4
20260506214059 13 200 3.2 11.3 0.05 0.13 0.13 90 1008.3
20260506213600 13 153 3.2 11.3 0.05 0.13 0.13 90 1008.4
20260506213139 13 0 1.6 12.9 0.05 0.13 0.13 90 1008.5
20260506212558 13 207 3.2 14.5 0.05 0.13 0.13 89 1008.6
20260506212058 13 180 3.2 16.1 0.05 0.13 0.13 89 1008.4
20260506211625 13 193 4.8 16.1 0.05 0.13 0.13 88 1008.6
20260506211057 13 175 3.2 19.3 0.03 0.10 0.10 88 1008.6
20260506210601 13 198 3.2 20.9 0.03 0.10 0.10 88 1008.6
20260506210126 13 153 4.8 20.9 0.03 0.10 0.10 87 1008.8
20260506205559 13 187 3.2 24.1 0.03 0.08 0.08 87 1008.8
20260506205059 13 219 4.8 24.1 0.05 0.08 0.08 88 1008.7
20260506204601 13 200 4.8 20.9 0.05 0.08 0.08 88 1008.8
20260506204057 13 169 3.2 12.9 0.08 0.08 0.08 88 1008.9
20260506203558 13 142 1.6 16.1 0.08 0.08 0.08 88 1008.9
20260506203105 13 302 3.2 16.1 0.08 0.08 0.08 88 1008.9
20260506202604 13 161 1.6 16.1 0.08 0.08 0.08 88 1008.9
20260506202104 13 0 3.2 20.9 0.08 0.08 0.08 88 1009.0
20260506201610 13 94 4.8 20.9 0.08 0.08 0.08 87 1009.1
20260506201100 13 207 4.8 20.9 0.08 0.08 0.08 87 1009.1
20260506200600 13 222 1.6 12.9 0.08 0.08 0.08 87 1009.1
20260506200103 14 198 1.6 11.3 0.08 0.08 0.08 86 1009.1
20260506195602 14 130 1.6 16.1 0.05 0.05 0.05 85 1009.3
20260506195103 14 167 3.2 17.7 0.03 0.03 0.03 84 1009.3
20260506194623 15 219 4.8 17.7 0.03 0.03 0.03 83 1009.4
20260506194100 15 114 3.2 12.9 0.00 0.00 0.00 81 1009.5
20260506193601 15 219 3.2 14.5 0.00 0.00 0.00 80 1009.5
20260506193102 15 164 4.8 14.5 0.00 0.00 0.00 78 1009.5
20260506192559 16 160 1.6 17.7 0.00 0.00 0.00 77 1009.4
20260506192058 16 165 3.2 17.7 0.00 0.00 0.00 76 1009.3
20260506191607 16 188 4.8 17.7 0.00 0.00 0.00 76 1009.5
20260506191059 16 142 4.8 17.7 0.00 0.00 0.00 76 1009.4
20260506190558 16 213 4.8 17.7 0.00 0.00 0.00 76 1009.5
20260506190100 16 224 4.8 16.1 0.00 0.00 0.00 75 1009.5
20260506185557 16 0 3.2 16.1 0.00 0.00 0.00 76 1009.5
20260506185102 16 129 4.8 16.1 0.00 0.00 0.00 75 1009.2
20260506184609 16 136 4.8 22.5 0.00 0.00 0.00 75 1009.4
20260506184101 16 182 4.8 22.5 0.00 0.00 0.00 75 1009.5
20260506183600 16 107 6.4 20.9 0.00 0.00 0.00 74 1009.6
20260506183103 16 175 6.4 20.9 0.00 0.00 0.00 74 1009.6
20260506182601 16 200 6.4 22.5 0.00 0.00 0.00 74 1009.6
20260506182059 17 193 6.4 22.5 0.00 0.00 0.00 73 1009.7
20260506181601 17 135 3.2 19.3 0.00 0.00 0.00 73 1009.5
20260506181059 17 136 6.4 19.3 0.00 0.00 0.00 73 1009.7
20260506180557 17 151 3.2 19.3 0.00 0.00 0.00 73 1009.8
20260506175558 17 172 4.8 20.9 0.00 0.00 0.00 72 1010.0
20260506175057 17 180 6.4 20.9 0.00 0.00 0.00 71 1010.1
20260506174559 17 159 4.8 17.7 0.00 0.00 0.00 71 1010.1
20260506174059 18 229 6.4 29.0 0.00 0.00 0.00 71 1010.3
20260506173601 17 168 8.0 29.0 0.00 0.00 0.00 71 1010.4
20260506173109 18 182 8.0 27.4 0.00 0.00 0.00 70 1010.4
20260506172603 18 223 6.4 29.0 0.00 0.00 0.00 71 1010.4
20260506172058 18 217 8.0 29.0 0.00 0.00 0.00 70 1010.4
20260506171558 18 97 8.0 27.4 0.00 0.00 0.00 70 1010.2
20260506171105 18 144 6.4 24.1 0.00 0.00 0.00 70 1010.4
20260506170600 18 169 8.0 24.1 0.00 0.00 0.00 68 1010.3
20260506170115 19 194 3.2 29.0 0.00 0.00 0.00 70 1010.3
20260506165558 18 115 4.8 30.6 0.00 0.00 0.00 69 1010.6
20260506165058 18 276 6.4 30.6 0.00 0.00 0.00 69 1010.7
20260506164601 18 124 4.8 19.3 0.00 0.00 0.00 70 1010.5
20260506164057 18 211 3.2 19.3 0.00 0.00 0.00 69 1010.5
20260506163600 18 221 3.2 16.1 0.00 0.00 0.00 69 1010.6
20260506163112 18 206 3.2 20.9 0.00 0.00 0.00 70 1010.8
20260506162557 18 227 4.8 24.1 0.00 0.00 0.00 69 1010.6
20260506162100 18 167 8.0 24.1 0.00 0.00 0.00 69 1010.9
20260506161601 18 232 3.2 16.1 0.00 0.00 0.00 69 1011.1
20260506161100 18 155 3.2 27.4 0.00 0.00 0.00 69 1011.1
20260506160601 18 236 4.8 29.0 0.00 0.00 0.00 70 1011.1
20260506160107 18 54 8.0 29.0 0.00 0.00 0.00 69 1011.2
20260506155600 18 165 4.8 24.1 0.00 0.00 0.00 69 1011.3
20260506155059 18 327 8.0 24.1 0.00 0.00 0.00 68 1011.2
20260506154604 18 204 3.2 19.3 0.00 0.00 0.00 69 1011.2
20260506154058 18 222 6.4 32.2 0.00 0.00 0.00 69 1011.2
20260506153558 18 142 4.8 32.2 0.00 0.00 0.00 69 1011.3
20260506153058 18 153 6.4 20.9 0.00 0.00 0.00 69 1011.4
20260506152558 19 128 3.2 17.7 0.00 0.00 0.00 69 1011.3
20260506152101 18 167 6.4 17.7 0.00 0.00 0.00 70 1011.4
20260506151558 18 292 4.8 16.1 0.00 0.00 0.00 70 1011.5
20260506151103 18 194 1.6 16.1 0.00 0.00 0.00 71 1011.4
20260506150601 17 128 6.4 16.1 0.00 0.00 0.00 72 1011.5
20260506150101 17 217 4.8 16.1 0.00 0.00 0.00 71 1011.6
20260506145601 17 223 3.2 20.9 0.00 0.00 0.00 71 1011.5
20260506145106 17 194 3.2 20.9 0.00 0.00 0.00 71 1011.3
20260506144608 17 94 3.2 27.4 0.00 0.00 0.00 71 1011.4
20260506144058 17 200 3.2 27.4 0.00 0.00 0.00 71 1011.3
20260506143559 17 98 6.4 17.7 0.00 0.00 0.00 71 1011.3
20260506143109 17 246 6.4 16.1 0.00 0.00 0.00 71 1011.2
20260506142559 17 157 4.8 12.9 0.00 0.00 0.00 71 1011.4
20260506142104 17 163 4.8 16.1 0.00 0.00 0.00 72 1011.4
20260506141601 17 330 3.2 16.1 0.00 0.00 0.00 72 1011.2
20260506141058 17 0 6.4 16.1 0.00 0.00 0.00 72 1011.0
20260506140601 17 0 4.8 16.1 0.00 0.00 0.00 71 1011.2
20260506140059 17 161 3.2 11.3 0.00 0.00 0.00 71 1011.3
20260506135557 17 182 1.6 12.9 0.00 0.00 0.00 71 1011.3
20260506135057 17 136 3.2 12.9 0.00 0.00 0.00 72 1011.4
20260506134601 17 46 3.2 12.9 0.00 0.00 0.00 73 1011.5
20260506134057 17 98 3.2 19.3 0.00 0.00 0.00 73 1011.6
20260506133600 17 90 3.2 19.3 0.00 0.00 0.00 74 1011.7
20260506133103 16 198 4.8 19.3 0.00 0.00 0.00 75 1011.8
20260506132601 16 160 3.2 16.1 0.00 0.00 0.00 75 1012.0
20260506132058 16 134 3.2 16.1 0.00 0.00 0.00 76 1012.0
20260506131559 16 206 4.8 16.1 0.00 0.00 0.00 77 1012.0
20260506131059 16 232 1.6 17.7 0.00 0.00 0.00 78 1012.0
20260506130601 16 188 6.4 17.7 0.00 0.00 0.00 77 1012.0
20260506125557 15 142 3.2 14.5 0.00 0.00 0.00 79 1011.9
20260506125057 15 273 1.6 14.5 0.00 0.00 0.00 80 1012.0
20260506124602 15 294 1.6 11.3 0.00 0.00 0.00 80 1011.9
20260506124057 15 136 3.2 11.3 0.00 0.00 0.00 81 1011.8
20260506123600 15 208 3.2 19.3 0.00 0.00 0.00 81 1011.8
20260506123101 15 238 1.6 19.3 0.00 0.00 0.00 82 1011.7
20260506122600 15 98 4.8 19.3 0.00 0.00 0.00 82 1011.7
20260506122100 15 161 1.6 11.3 0.00 0.00 0.00 82 1011.9
20260506121559 14 128 4.8 12.9 0.00 0.00 0.00 83 1011.9
20260506121057 14 170 3.2 12.9 0.00 0.00 0.00 83 1012.1
20260506120601 14 208 1.6 12.9 0.00 0.00 0.00 83 1012.2
20260506120100 14 80 3.2 17.7 0.00 0.00 0.00 83 1012.3
20260506115558 14 140 1.6 17.7 0.00 0.00 0.00 83 1012.2
20260506115100 14 155 1.6 12.9 0.00 0.00 0.00 83 1012.1
20260506114559 14 192 4.8 12.9 0.00 0.00 0.00 83 1012.2
20260506114100 14 360 3.2 20.9 0.00 0.00 0.00 84 1012.2
20260506113559 13 143 3.2 20.9 0.00 0.00 0.00 84 1012.3
20260506113059 13 163 3.2 19.3 0.00 0.00 0.00 84 1012.2
20260506112605 13 0 1.6 12.9 0.00 0.00 0.00 85 1012.3
20260506112059 13 158 3.2 12.9 0.00 0.00 0.00 85 1012.3
20260506111603 13 197 4.8 12.9 0.00 0.00 0.00 85 1012.4
20260506111059 13 192 4.8 12.9 0.00 0.00 0.00 85 1012.3
20260506110602 13 171 1.6 11.3 0.00 0.00 0.00 85 1012.3
20260506110057 13 0 3.2 20.9 0.00 0.00 0.00 85 1012.3
20260506105557 13 180 4.8 20.9 0.00 0.00 0.00 85 1012.2
20260506105102 13 136 3.2 14.5 0.00 0.00 0.00 86 1012.2
20260506104602 13 208 1.6 14.5 0.00 0.00 0.00 86 1012.1
20260506104057 13 289 3.2 12.9 0.00 0.00 0.00 86 1012.1
20260506103601 13 158 1.6 9.7 0.00 0.00 0.00 86 1012.2
20260506103127 13 142 1.6 11.3 0.00 0.00 0.00 87 1012.2
20260506102600 13 265 3.2 12.9 0.00 0.00 0.00 87 1012.2
20260506102100 13 160 3.2 12.9 0.00 0.00 0.00 87 1012.0
20260506101602 13 167 1.6 12.9 0.00 0.00 0.00 87 1012.1
20260506101057 13 304 3.2 12.9 0.00 0.00 0.00 87 1012.1
20260506100600 13 74 3.2 17.7 0.00 0.00 0.00 87 1012.0
20260506100059 13 167 3.2 17.7 0.00 0.00 0.00 87 1011.9
20260506095600 13 171 4.8 16.1 0.00 0.00 0.00 88 1011.8
20260506095102 13 196 3.2 12.9 0.00 0.00 0.00 87 1011.9
20260506094606 13 188 3.2 12.9 0.00 0.00 0.00 88 1011.9
20260506094101 13 97 1.6 11.3 0.00 0.00 0.00 88 1011.8
20260506093601 13 184 1.6 11.3 0.00 0.00 0.00 88 1011.9
20260506093102 13 239 1.6 11.3 0.00 0.00 0.00 87 1011.9
20260506092600 13 230 0.0 11.3 0.00 0.00 0.00 87 1011.9
20260506092058 13 161 1.6 16.1 0.00 0.00 0.00 87 1012.0
20260506091607 13 126 3.2 16.1 0.00 0.00 0.00 87 1011.9
20260506091101 13 165 1.6 8.0 0.00 0.00 0.00 87 1011.9
20260506090559 13 138 0.0 9.7 0.00 0.00 0.00 87 1011.9
20260506085557 13 205 4.8 11.3 0.00 0.00 0.00 87 1012.0
20260506085059 13 205 3.2 11.3 0.00 0.00 0.00 86 1012.1
20260506084617 13 202 1.6 8.0 0.00 0.00 0.00 86 1012.1
20260506084100 13 148 1.6 16.1 0.00 0.00 0.00 86 1012.2
20260506083559 13 146 3.2 16.1 0.00 0.00 0.00 86 1012.1
20260506083103 13 195 3.2 16.1 0.00 0.00 0.00 86 1012.1
20260506082557 13 0 1.6 16.1 0.00 0.00 0.00 86 1012.1
20260506082100 13 215 1.6 12.9 0.00 0.00 0.00 86 1012.1
20260506081607 13 189 3.2 14.5 0.00 0.00 0.00 86 1012.1
20260506081100 13 185 4.8 14.5 0.00 0.00 0.00 85 1012.1
20260506080600 13 202 3.2 12.9 0.00 0.00 0.00 85 1012.1
20260506073102 13 215 3.2 12.9 0.00 0.00 0.00 85 1012.0
20260506072557 13 211 3.2 11.3 0.00 0.00 0.00 85 1012.0
20260506072100 13 144 3.2 11.3 0.00 0.00 0.00 85 1012.0
20260506071559 13 0 3.2 11.3 0.00 0.00 0.00 84 1012.0
20260506071059 13 180 3.2 9.7 0.00 0.00 0.00 84 1011.9
20260506070602 13 146 3.2 8.0 0.00 0.00 0.00 84 1012.0
20260506062059 13 111 3.2 16.1 0.00 0.00 0.00 82 1012.0
20260506061603 13 161 1.6 9.7 0.00 0.00 0.00 82 1012.0
20260506061057 13 220 3.2 9.7 0.00 0.00 0.00 82 1012.0
20260506060601 13 169 3.2 11.3 0.00 0.00 0.00 82 1012.0
20260506051059 13 167 3.2 12.9 0.00 0.00 0.00 81 1012.4
20260506050603 13 207 1.6 12.9 0.00 0.00 0.00 81 1012.5
20260506050111 13 0 1.6 12.9 0.00 0.00 0.00 81 1012.5
20260506045101 13 176 1.6 11.3 0.00 0.00 0.00 81 1012.7
20260506044601 13 170 3.2 11.3 0.00 0.00 0.00 81 1012.8
20260506044100 13 167 1.6 8.0 0.00 0.00 0.00 80 1012.8
20260506043600 13 182 3.2 11.3 0.00 0.00 0.00 80 1012.8
20260506043105 13 77 3.2 11.3 0.00 0.00 0.00 80 1012.9
20260506042600 13 171 3.2 8.0 0.00 0.00 0.00 80 1012.7
20260506042100 13 167 1.6 19.3 0.00 0.00 0.00 80 1012.7
20260506041600 13 126 3.2 19.3 0.00 0.00 0.00 79 1012.8
20260506041059 13 0 1.6 16.1 0.00 0.00 0.00 79 1012.6
20260506040559 13 222 3.2 16.1 0.00 0.00 0.00 79 1012.7
20260506040107 13 168 1.6 16.1 0.00 0.00 0.00 79 1012.6
20260506035559 13 202 3.2 14.5 0.00 0.00 0.00 78 1012.6
20260506035059 13 169 1.6 9.7 0.00 0.00 0.00 78 1012.5
20260506034605 13 0 4.8 9.7 0.00 0.00 0.00 77 1012.5
20260506034059 13 119 3.2 11.3 0.00 0.00 0.00 77 1012.6
20260506033600 13 103 1.6 11.3 0.00 0.00 0.00 77 1012.6
20260506033100 13 0 4.8 9.7 0.00 0.00 0.00 77 1012.5
20260506032602 13 195 1.6 9.7 0.00 0.00 0.00 76 1012.5
20260506032100 13 181 1.6 9.7 0.00 0.00 0.00 76 1012.5
20260506031600 13 219 1.6 14.5 0.00 0.00 0.00 76 1012.5